DEOPM EDLP-EDDG

Flight info

Callsign DEOPM
Flight time 0h 37m
Altitude 10000
Route DCT
Aircraft C172/L-SFG/C

Departure

Time 2026-04-22 14:55
Airport Paderborn Lippstadt Airport (EDLP)

Arrival

Time 2026-04-22 15:32
Airport Münster Osnabrück Airport (EDDG)
Time Latitude Longitude Altitude Speed Heading
2026-04-22 14:48 51.61029 8.61664 726 ft 0 kts 237°
2026-04-22 14:50 51.61024 8.61652 726 ft 4 kts 234°
2026-04-22 14:50 51.61040 8.61599 726 ft 10 kts 338°
2026-04-22 14:50 51.61134 8.61505 714 ft 18 kts 328°
2026-04-22 14:51 51.61128 8.61427 713 ft 12 kts 228°
2026-04-22 14:51 51.61072 8.61288 713 ft 17 kts 238°
2026-04-22 14:51 51.60997 8.61111 713 ft 18 kts 243°
2026-04-22 14:51 51.61024 8.61020 714 ft 8 kts 336°
2026-04-22 14:52 51.61041 8.61014 712 ft 0 kts
2026-04-22 14:53 51.61042 8.61014 712 ft 0 kts
2026-04-22 14:53 51.61071 8.61019 711 ft 10 kts 15°
2026-04-22 14:53 51.61160 8.61084 709 ft 17 kts 24°
2026-04-22 14:54 51.61249 8.61239 709 ft 30 kts 56°
2026-04-22 14:54 51.61491 8.61799 804 ft 77 kts 49°
2026-04-22 14:54 51.61818 8.62535 1097 ft 88 kts 57°
2026-04-22 14:54 51.62186 8.63478 1092 ft 105 kts 56°
2026-04-22 14:55 51.62606 8.64346 1391 ft 87 kts 46°
2026-04-22 14:55 51.63006 8.65172 1606 ft 100 kts 53°
2026-04-22 14:55 51.63472 8.66009 1957 ft 97 kts 41°
2026-04-22 14:55 51.63983 8.66690 2411 ft 91 kts 44°
2026-04-22 14:56 51.64402 8.67343 2807 ft 85 kts 41°
2026-04-22 14:56 51.64880 8.68061 3091 ft 99 kts 44°
2026-04-22 14:56 51.65364 8.68805 3498 ft 97 kts 44°
2026-04-22 14:56 51.65901 8.69674 3749 ft 111 kts 43°
2026-04-22 14:57 51.66480 8.70385 4111 ft 106 kts 42°
2026-04-22 14:57 51.67185 8.70615 4460 ft 111 kts 359°
2026-04-22 14:57 51.68004 8.70575 4567 ft 121 kts
2026-04-22 14:57 51.68831 8.70690 4698 ft 123 kts
2026-04-22 14:58 51.69734 8.70545 4584 ft 137 kts 359°
2026-04-22 14:58 51.70638 8.70355 4862 ft 125 kts
2026-04-22 14:58 51.71527 8.70253 5106 ft 119 kts 356°
2026-04-22 14:58 51.72444 8.70201 4954 ft 141 kts
2026-04-22 14:59 51.73364 8.70094 5183 ft 128 kts 358°
2026-04-22 14:59 51.74258 8.69780 5144 ft 134 kts 351°
2026-04-22 14:59 51.75158 8.69523 5002 ft 129 kts 357°
2026-04-22 14:59 51.76117 8.69483 4506 ft 141 kts
2026-04-22 15:00 51.77028 8.69646 4481 ft 123 kts 11°
2026-04-22 15:00 51.77809 8.69827 4623 ft 105 kts 12°
2026-04-22 15:00 51.78574 8.69951 4504 ft 115 kts
2026-04-22 15:00 51.79387 8.69914 4451 ft 123 kts 356°
2026-04-22 15:01 51.80193 8.69656 4538 ft 107 kts 347°
2026-04-22 15:01 51.80981 8.69616 4355 ft 120 kts 13°
2026-04-22 15:01 51.81822 8.69676 4223 ft 123 kts
2026-04-22 15:01 51.82647 8.69306 4139 ft 124 kts 335°
2026-04-22 15:02 51.83374 8.68537 3992 ft 128 kts 332°
2026-04-22 15:02 51.84102 8.67759 3976 ft 121 kts 331°
2026-04-22 15:02 51.84751 8.67047 3937 ft 115 kts 329°
2026-04-22 15:02 51.85431 8.66300 3924 ft 118 kts 330°
2026-04-22 15:03 51.85727 8.66002 3943 ft 0 kts 335°
2026-04-22 15:07 51.86286 8.65572 3979 ft 107 kts 338°
2026-04-22 15:07 51.86967 8.65016 3844 ft 113 kts 340°
2026-04-22 15:08 51.87687 8.64576 3853 ft 107 kts 346°
2026-04-22 15:08 51.88395 8.64183 3752 ft 114 kts 345°
2026-04-22 15:08 51.89122 8.63694 3692 ft 114 kts 338°
2026-04-22 15:08 51.89812 8.63025 3710 ft 111 kts 331°
2026-04-22 15:09 51.90449 8.62354 3707 ft 111 kts 336°
2026-04-22 15:09 51.91144 8.61876 3638 ft 108 kts 340°
2026-04-22 15:09 51.91711 8.60994 3542 ft 118 kts 313°
2026-04-22 15:09 51.92220 8.60016 3575 ft 113 kts 320°
2026-04-22 15:10 51.92697 8.58960 3612 ft 117 kts 304°
2026-04-22 15:10 51.93108 8.57865 3655 ft 111 kts 311°
2026-04-22 15:10 51.93563 8.56820 3656 ft 115 kts 307°
2026-04-22 15:10 51.93945 8.55708 3709 ft 113 kts 297°
2026-04-22 15:11 51.94162 8.54494 3723 ft 114 kts 282°
2026-04-22 15:11 51.94106 8.53141 3572 ft 126 kts 276°
2026-04-22 15:11 51.94332 8.51836 3635 ft 114 kts 290°
2026-04-22 15:11 51.94696 8.50792 3661 ft 111 kts 317°
2026-04-22 15:12 51.95333 8.50139 3706 ft 102 kts 344°
2026-04-22 15:12 51.96002 8.49793 3720 ft 102 kts 345°
2026-04-22 15:12 51.96592 8.49107 3721 ft 109 kts 314°
2026-04-22 15:12 51.96991 8.48124 3835 ft 104 kts 301°
2026-04-22 15:13 51.97375 8.47162 3810 ft 104 kts 311°
2026-04-22 15:13 51.97833 8.46249 3803 ft 105 kts 319°
2026-04-22 15:13 51.98346 8.45407 3812 ft 108 kts 317°
2026-04-22 15:13 51.98904 8.44560 3727 ft 112 kts 330°
2026-04-22 15:14 51.99600 8.44162 3741 ft 106 kts 354°
2026-04-22 15:14 52.00279 8.43808 3811 ft 103 kts 324°
2026-04-22 15:14 52.00741 8.42889 3848 ft 106 kts 312°
2026-04-22 15:14 52.01021 8.41806 3899 ft 106 kts 291°
2026-04-22 15:15 52.01297 8.40712 3959 ft 104 kts 299°
2026-04-22 15:15 52.01613 8.39623 3978 ft 110 kts 301°
2026-04-22 15:15 52.01974 8.38444 3929 ft 112 kts 299°
2026-04-22 15:15 52.02212 8.37299 3956 ft 111 kts 288°
2026-04-22 15:16 52.02530 8.36154 3978 ft 111 kts 310°
2026-04-22 15:16 52.03064 8.35189 3775 ft 123 kts 317°
2026-04-22 15:16 52.03564 8.34431 3557 ft 126 kts 333°
2026-04-22 15:16 52.04348 8.34019 3484 ft 115 kts 358°
2026-04-22 15:17 52.05135 8.33828 3141 ft 125 kts 344°
2026-04-22 15:17 52.05815 8.32868 2888 ft 119 kts 311°
2026-04-22 15:17 52.06174 8.31840 2988 ft 103 kts 295°
2026-04-22 15:17 52.06402 8.30642 2771 ft 119 kts 296°
2026-04-22 15:18 52.06635 8.29438 2874 ft 105 kts 288°
2026-04-22 15:18 52.06794 8.28184 2589 ft 121 kts 292°
2026-04-22 15:18 52.06861 8.26873 2544 ft 113 kts 280°
2026-04-22 15:18 52.07143 8.25735 2429 ft 113 kts 320°
2026-04-22 15:19 52.07703 8.24867 2424 ft 110 kts 316°
2026-04-22 15:19 52.08215 8.23901 2237 ft 115 kts 315°
2026-04-22 15:19 52.08735 8.22934 2093 ft 117 kts 316°
2026-04-22 15:19 52.09233 8.21870 1928 ft 117 kts 311°
2026-04-22 15:20 52.09634 8.20794 1930 ft 106 kts 308°
2026-04-22 15:20 52.09871 8.19603 1761 ft 117 kts 257°
2026-04-22 15:20 52.09381 8.18628 1924 ft 98 kts 245°
2026-04-22 15:20 52.09263 8.17585 1894 ft 99 kts 270°
2026-04-22 15:21 52.09210 8.16453 1830 ft 104 kts 270°
2026-04-22 15:21 52.09164 8.15322 1975 ft 93 kts 275°
2026-04-22 15:21 52.09154 8.14208 2111 ft 99 kts 274°
2026-04-22 15:21 52.09140 8.13147 2276 ft 99 kts 272°
2026-04-22 15:22 52.09091 8.12025 2472 ft 93 kts 266°
2026-04-22 15:22 52.08997 8.11017 2674 ft 94 kts 270°
2026-04-22 15:22 52.08933 8.10032 2856 ft 92 kts 271°
2026-04-22 15:22 52.08892 8.08899 2762 ft 104 kts 285°
2026-04-22 15:23 52.08789 8.07665 2617 ft 101 kts 276°
2026-04-22 15:23 52.08758 8.06411 2565 ft 122 kts 268°
2026-04-22 15:23 52.08625 8.05058 2698 ft 115 kts 266°
2026-04-22 15:23 52.08507 8.03786 3035 ft 111 kts 265°
2026-04-22 15:24 52.08404 8.02619 2981 ft 106 kts 265°
2026-04-22 15:24 52.08241 8.01347 2989 ft 117 kts 264°
2026-04-22 15:24 52.08232 8.00063 3114 ft 115 kts 285°
2026-04-22 15:24 52.08300 7.98798 3290 ft 112 kts 278°
2026-04-22 15:25 52.08383 7.97524 3429 ft 111 kts 279°
2026-04-22 15:25 52.08478 7.96246 3436 ft 115 kts 282°
2026-04-22 15:25 52.08612 7.95041 3673 ft 107 kts 286°
2026-04-22 15:25 52.08765 7.93790 3581 ft 123 kts 288°
2026-04-22 15:26 52.08942 7.92410 3678 ft 119 kts 287°
2026-04-22 15:26 52.09099 7.91087 3643 ft 124 kts 287°
2026-04-22 15:26 52.09285 7.89763 3654 ft 116 kts 284°
2026-04-22 15:26 52.09518 7.88510 3585 ft 121 kts 302°
2026-04-22 15:27 52.09827 7.87297 3632 ft 113 kts 295°
2026-04-22 15:27 52.10146 7.86078 3368 ft 126 kts 303°
2026-04-22 15:27 52.10660 7.84901 3034 ft 128 kts 314°
2026-04-22 15:27 52.11095 7.83683 2981 ft 117 kts 295°
2026-04-22 15:28 52.11543 7.82687 2824 ft 107 kts 316°
2026-04-22 15:28 52.11985 7.81864 2652 ft 91 kts 319°
2026-04-22 15:28 52.12491 7.81249 2577 ft 91 kts 332°
2026-04-22 15:28 52.13033 7.80631 2280 ft 98 kts 333°
2026-04-22 15:29 52.13596 7.80081 2101 ft 92 kts 333°
2026-04-22 15:29 52.14100 7.79612 1985 ft 80 kts 337°
2026-04-22 15:29 52.14539 7.79018 1757 ft 86 kts 316°
2026-04-22 15:30 52.14871 7.76714 1378 ft 120 kts 273°
2026-04-22 15:30 52.14779 7.75386 1132 ft 108 kts 264°
2026-04-22 15:30 52.14621 7.74333 911 ft 89 kts 259°
2026-04-22 15:30 52.14452 7.73383 712 ft 87 kts 263°
2026-04-22 15:31 52.14276 7.72446 538 ft 83 kts 254°
2026-04-22 15:31 52.14093 7.71602 463 ft 77 kts 255°
2026-04-22 15:31 52.13934 7.70798 356 ft 74 kts 262°
2026-04-22 15:31 52.13777 7.70009 229 ft 74 kts 259°
2026-04-22 15:32 52.13625 7.69257 170 ft 65 kts 256°
2026-04-22 15:32 52.13505 7.68612 160 ft 52 kts 246°
2026-04-22 15:32 52.13375 7.68244 162 ft 16 kts 202°
2026-04-22 15:32 52.13357 7.68246 163 ft 0 kts 144°
2026-04-22 15:33 52.13321 7.68286 162 ft 14 kts 159°
2026-04-22 15:33 52.13188 7.68359 159 ft 25 kts 161°
2026-04-22 15:33 52.13103 7.68476 159 ft 14 kts 75°
2026-04-22 15:33 52.13084 7.68545 159 ft 1 kts 91°